Weather Roundup
Issued by NWS

Home | Current Version | Previous Version | Text Only | Print | Product List | Glossary On
Versions: 1 2 3 4 5 6 7 8 9 10 11 12 13 14 15 16 17 18 19 20 21 22 23 24 25 26 27 28 29 30 31 32 33 34 35 36 37 38 39 40 41 42 43 44 45 46 47 48 49 50
000
NZUS93 KARX 281559
HRRWXR

CURRENT HOURLY OBSERVATIONS ACROSS
MUCH OF THE UPPER MISSISSIPPI VALLEY
NATIONAL WEATHER SERVICE LA CROSSE WI
1100 AM CDT THU AUG 28 2014


...SOUTHEAST MINNESOTA...


CITY           SKY/WX    TMP DP  RH WIND       PRES   REMARKS
ROCHESTER      LGT RAIN  65  61  87 S13       30.10F
ROCHESTER/MAYO CLOUDY    65  61  87 SE7       30.09S
WINONA         CLOUDY    70  63  78 SE6       30.09F
AUSTIN         NOT AVBL
ALBERT LEA     LGT RAIN  64  63  94 SE10      30.05F
DODGE CENTER   DRIZZLE   64  63  94 SE8       30.08F
PRESTON        DRIZZLE   64  64  98 CALM      30.10S
OWATONNA       LGT RAIN  64  61  88 SE10      30.06F
FARIBAULT      CLOUDY    70  57  64 SE10      30.06F
$$

...ELSEWHERE IN MINNESOTA...


CITY           SKY/WX    TMP DP  RH WIND       PRES   REMARKS
MINNEAPOLIS    PTSUNNY   70  59  68 E13       30.06F
INTNL FALLS    MOSUNNY   69  58  67 VRB7G17   30.05S
DULUTH         SUNNY     67  52  58 S10       30.11F
RED WING       CLOUDY    70  59  68 SE8       30.07F
REDWOOD FALLS  LGT RAIN  65  63  93 SE12      30.01S
MANKATO        CLOUDY    64  59  82 SE12      30.03F
WORTHINGTON    CLOUDY    66  64  94 SE7       30.00S
FAIRMONT       CLOUDY    63  61  94 SE9       30.01F
$$

...SOUTHWEST WISCONSIN...


CITY           SKY/WX    TMP DP  RH WIND       PRES   REMARKS
LA CROSSE      PTSUNNY   73  61  65 S9        30.10F
PRAIRIE DU CHI CLOUDY    69  60  71 E5        30.10F
BOSCOBEL       CLOUDY    73  60  63 SE6       30.11F
LONE ROCK      NOT AVBL
PLATTEVILLE    PTSUNNY   71  62  74 SE12      30.13S
FORT MC COY    PTSUNNY   71  59  64 S8        30.12S
VIROQUA        PTSUNNY   70  62  77 SE7       30.13S
WIS DELLS      MOSUNNY   71  57  61 S7        30.14S
$$

...ELSEWHERE IN WISCONSIN...


CITY           SKY/WX    TMP DP  RH WIND       PRES   REMARKS
MILWAUKEE      MOSUNNY   70  55  59 SE12      30.16R
MADISON        MOSUNNY   73  58  59 S12       30.14S
GREEN BAY      CLOUDY    67  58  72 S3        30.16F
EAU CLAIRE     NOT AVBL
BLACK RVR FLS  FAIR      68  60  75 CALM      30.12F
MEDFORD        SUNNY     66  54  66 SE7       30.15S
WAUSAU         CLOUDY    60  57  89 E6        30.15S
WIS RAPIDS     PTSUNNY   68  60  75 SW3       30.16S
MARSHFIELD     CLOUDY    63  59  87 SE7       30.15S
RICE LAKE      PTSUNNY   66  53  63 SE6       30.14S
$$

...NORTHEAST IOWA...


CITY           SKY/WX    TMP DP  RH WIND       PRES   REMARKS
WATERLOO       LGT RAIN  64  62  93 SE8       30.06F FOG
DUBUQUE        CLOUDY    69  60  73 SE12      30.11F
DECORAH        CLOUDY    66  63  88 VRB7      30.10S
MASON CITY     LGT RAIN  64  64 100 SE10      30.05F FOG
CHARLES CITY   LGT RAIN  64  63  94 SE7       30.09S
OELWEIN        CLOUDY    64  63  94 SE9       30.10S
$$

...ELSEWHERE IN IOWA...


CITY           SKY/WX    TMP DP  RH WIND       PRES   REMARKS
DES MOINES     LGT RAIN  69  67  93 SE9       30.02S FOG
IOWA CITY      LGT RAIN  67  64  90 E7        30.08S
FORT DODGE     CLOUDY    66  64  94 SE13      29.99F
MARSHALLTOWN   RAIN      66  65  96 E12       30.04F FOG
CEDAR RAPIDS   LGT RAIN  66  63  90 SE5       30.08R FOG
$$

...NORTHERN ILLINOIS...


CITY           SKY/WX    TMP DP  RH WIND       PRES   REMARKS
CHICAGO-OHARE  MOSUNNY   73  52  47 E8        30.13S
DUPAGE         SUNNY     75  55  49 E8        30.13R
CHICAGO-MIDWAY MOSUNNY   74  58  57 E10       30.13S
MOLINE         PTSUNNY   73  62  68 E10       30.08S
ROCKFORD       PTSUNNY   73  59  61 E9        30.14F
STERLING       PTSUNNY   73  63  68 SE12      30.11S
PEORIA         MOSUNNY   75  65  70 E8        30.08F
$$

NOTE: "FAIR" INDICATES FEW OR NO CLOUDS BELOW 12,000 FEET WITH NO
SIGNIFICANT WEATHER AND/OR OBSTRUCTIONS TO VISIBILITY. WIND
SPEEDS ARE IN MILES-PER-HOUR.



USA.gov is the U.S. government's official web portal to all federal, state and local government web resources and services.